Time,TemperatureF,DewpointF,PressureIn,WindDirection,WindDirectionDegrees,WindSpeedMPH,WindSpeedGustMPH,Humidity,HourlyPrecipIn,Conditions,Clouds,dailyrainin,SoftwareType,DateUTC
2013-07-16 00:00:00,72.2,70.4,29.98,NE,47,0.0,5.0,94,0.00,,SKC,1.83,VWS V14.01,2013-07-16 05:00:00,
2013-07-16 00:01:00,72.2,70.4,29.98,NE,47,0.0,3.0,94,0.00,,SKC,0.00,VWS V14.01,2013-07-16 05:01:00,
2013-07-16 00:06:00,72.2,70.4,29.98,NE,47,0.0,0.0,94,0.00,,SKC,0.00,VWS V14.01,2013-07-16 05:06:00,
2013-07-16 00:10:00,72.2,70.7,29.98,NE,47,0.0,7.0,95,0.00,,SKC,0.00,VWS V14.01,2013-07-16 05:10:00,
2013-07-16 00:11:00,72.2,70.7,29.98,NE,47,0.0,0.0,95,0.00,,SKC,0.00,VWS V14.01,2013-07-16 05:11:00,
2013-07-16 00:16:00,72.3,70.5,29.98,NE,47,0.0,0.0,94,0.00,,SKC,0.00,VWS V14.01,2013-07-16 05:16:00,
2013-07-16 00:20:00,72.3,70.5,29.98,NE,47,0.0,0.0,94,0.00,,SKC,0.00,VWS V14.01,2013-07-16 05:20:00,
2013-07-16 00:21:00,72.3,70.5,29.98,NE,47,0.0,0.0,94,0.00,,SKC,0.00,VWS V14.01,2013-07-16 05:21:00,
2013-07-16 00:26:00,72.3,70.5,29.98,NE,47,0.0,0.0,94,0.00,,SKC,0.00,VWS V14.01,2013-07-16 05:26:00,
2013-07-16 00:30:00,72.3,70.5,29.98,NE,47,0.0,1.0,94,0.00,,SKC,0.00,VWS V14.01,2013-07-16 05:30:00,
2013-07-16 00:31:00,72.3,70.8,29.98,NE,47,0.0,0.0,95,0.00,,SKC,0.00,VWS V14.01,2013-07-16 05:31:00,
2013-07-16 00:36:00,72.3,70.8,29.98,NE,47,0.0,0.0,95,0.00,,SKC,0.00,VWS V14.01,2013-07-16 05:36:00,
2013-07-16 00:40:00,72.3,70.8,29.98,NE,47,0.0,3.0,95,0.00,,SKC,0.00,VWS V14.01,2013-07-16 05:40:00,
2013-07-16 00:41:00,72.3,70.8,29.98,NE,47,3.0,6.0,95,0.00,,SKC,0.00,VWS V14.01,2013-07-16 05:41:00,
2013-07-16 00:46:00,72.4,70.9,29.98,NE,47,2.0,3.0,95,0.00,,SKC,0.00,VWS V14.01,2013-07-16 05:46:00,
2013-07-16 00:50:00,72.4,70.9,29.98,NE,47,3.0,6.0,95,0.00,,SKC,0.00,VWS V14.01,2013-07-16 05:50:00,
2013-07-16 00:51:00,72.4,70.9,29.98,NE,47,0.0,3.0,95,0.00,,SKC,0.00,VWS V14.01,2013-07-16 05:51:00,
2013-07-16 00:56:00,72.5,71.0,29.98,NE,47,0.0,0.0,95,0.00,,SKC,0.00,VWS V14.01,2013-07-16 05:56:00,
2013-07-16 01:00:00,72.5,71.0,29.98,NE,47,0.0,3.0,95,0.00,,SKC,0.00,VWS V14.01,2013-07-16 06:00:00,
2013-07-16 01:01:00,72.5,70.7,29.99,NE,47,0.0,0.0,94,0.00,,SKC,0.00,VWS V14.01,2013-07-16 06:01:00,
2013-07-16 01:06:00,72.5,70.7,29.99,NE,47,0.0,0.0,94,0.00,,SKC,0.00,VWS V14.01,2013-07-16 06:06:00,
2013-07-16 01:10:00,72.5,70.7,29.98,NE,47,0.0,0.0,94,0.00,,SKC,0.00,VWS V14.01,2013-07-16 06:10:00,
2013-07-16 01:11:00,72.5,70.7,29.98,NE,47,0.0,4.0,94,0.00,,SKC,0.00,VWS V14.01,2013-07-16 06:11:00,
2013-07-16 01:16:00,72.6,70.8,29.98,NE,47,1.0,1.0,94,0.00,,SKC,0.00,VWS V14.01,2013-07-16 06:16:00,
2013-07-16 01:20:00,72.6,70.8,29.98,NE,47,0.0,4.0,94,0.00,,SKC,0.00,VWS V14.01,2013-07-16 06:20:00,
2013-07-16 01:21:00,72.6,70.8,29.98,NE,47,4.0,7.0,94,0.00,,SKC,0.00,VWS V14.01,2013-07-16 06:21:00,
2013-07-16 01:26:00,72.6,70.8,29.99,NE,47,0.0,0.0,94,0.00,,SKC,0.00,VWS V14.01,2013-07-16 06:26:00,
2013-07-16 01:30:00,72.6,70.8,29.99,NE,47,0.0,7.0,94,0.00,,SKC,0.00,VWS V14.01,2013-07-16 06:30:00,
2013-07-16 01:31:00,72.6,70.8,29.99,NE,47,0.0,1.0,94,0.00,,SKC,0.00,VWS V14.01,2013-07-16 06:31:00,
2013-07-16 01:36:00,72.6,70.8,29.99,NE,47,0.0,0.0,94,0.00,,SKC,0.00,VWS V14.01,2013-07-16 06:36:00,
2013-07-16 01:40:00,72.6,70.8,29.99,NE,47,0.0,1.0,94,0.00,,SKC,0.00,VWS V14.01,2013-07-16 06:40:00,
2013-07-16 01:41:00,72.6,70.8,29.99,NE,47,0.0,2.0,94,0.00,,SKC,0.00,VWS V14.01,2013-07-16 06:41:00,
2013-07-16 01:46:00,72.6,70.8,29.99,NE,47,0.0,0.0,94,0.00,,SKC,0.00,VWS V14.01,2013-07-16 06:46:00,
2013-07-16 01:50:00,72.6,70.8,29.99,NE,47,0.0,2.0,94,0.00,,SKC,0.00,VWS V14.01,2013-07-16 06:50:00,
2013-07-16 01:51:00,72.6,70.8,29.98,NE,47,0.0,3.0,94,0.00,,SKC,0.00,VWS V14.01,2013-07-16 06:51:00,
2013-07-16 01:56:00,72.6,70.8,29.98,NE,47,0.0,0.0,94,0.00,,SKC,0.00,VWS V14.01,2013-07-16 06:56:00,
2013-07-16 02:00:00,72.6,70.8,29.98,NE,47,0.0,3.0,94,0.00,,SKC,0.00,VWS V14.01,2013-07-16 07:00:00,
2013-07-16 02:01:00,72.6,70.8,29.98,NE,47,0.0,0.0,94,0.00,,SKC,0.00,VWS V14.01,2013-07-16 07:01:00,
2013-07-16 02:06:00,72.6,71.1,29.98,NE,47,0.0,0.0,95,0.00,,SKC,0.00,VWS V14.01,2013-07-16 07:06:00,
2013-07-16 02:10:00,72.6,71.1,29.99,NE,47,0.0,1.0,95,0.00,,SKC,0.00,VWS V14.01,2013-07-16 07:10:00,
2013-07-16 02:11:00,72.6,71.1,29.98,NE,47,0.0,0.0,95,0.00,,SKC,0.00,VWS V14.01,2013-07-16 07:11:00,
2013-07-16 02:16:00,72.7,71.2,29.98,NE,47,0.0,0.0,95,0.00,,SKC,0.00,VWS V14.01,2013-07-16 07:16:00,
2013-07-16 02:20:00,72.7,71.2,29.98,NE,47,0.0,0.0,95,0.00,,SKC,0.00,VWS V14.01,2013-07-16 07:20:00,
2013-07-16 02:21:00,72.7,71.2,29.98,NE,47,0.0,0.0,95,0.00,,SKC,0.00,VWS V14.01,2013-07-16 07:21:00,
2013-07-16 02:26:00,72.7,71.2,29.98,NE,47,0.0,0.0,95,0.00,,SKC,0.00,VWS V14.01,2013-07-16 07:26:00,
2013-07-16 02:30:00,72.7,71.2,29.98,NE,47,0.0,0.0,95,0.00,,SKC,0.00,VWS V14.01,2013-07-16 07:30:00,
2013-07-16 02:31:00,72.8,71.3,29.98,NE,47,0.0,1.0,95,0.00,,SKC,0.00,VWS V14.01,2013-07-16 07:31:00,
2013-07-16 02:36:00,72.8,71.3,29.98,NE,47,0.0,1.0,95,0.00,,SKC,0.00,VWS V14.01,2013-07-16 07:36:00,
2013-07-16 02:40:00,72.8,71.3,29.98,NE,47,0.0,1.0,95,0.00,,SKC,0.00,VWS V14.01,2013-07-16 07:40:00,
2013-07-16 02:41:00,72.8,71.3,29.98,NE,47,0.0,2.0,95,0.00,,SKC,0.00,VWS V14.01,2013-07-16 07:41:00,
2013-07-16 02:46:00,72.8,71.3,29.98,NE,47,0.0,2.0,95,0.00,,SKC,0.00,VWS V14.01,2013-07-16 07:46:00,
2013-07-16 02:50:00,72.8,71.3,29.98,NE,47,0.0,2.0,95,0.00,,SKC,0.00,VWS V14.01,2013-07-16 07:50:00,
2013-07-16 02:51:00,72.8,71.3,29.98,NE,47,0.0,0.0,95,0.00,,SKC,0.00,VWS V14.01,2013-07-16 07:51:00,
2013-07-16 02:56:00,72.8,71.3,29.98,NE,47,0.0,0.0,95,0.00,,SKC,0.00,VWS V14.01,2013-07-16 07:56:00,
2013-07-16 03:00:00,72.8,71.3,29.98,NE,47,0.0,0.0,95,0.00,,SKC,0.00,VWS V14.01,2013-07-16 08:00:00,
2013-07-16 03:01:00,72.9,71.4,29.98,NE,47,0.0,0.0,95,0.00,,SKC,0.00,VWS V14.01,2013-07-16 08:01:00,
2013-07-16 03:06:00,72.8,71.3,29.98,NE,47,0.0,0.0,95,0.00,,SKC,0.00,VWS V14.01,2013-07-16 08:06:00,
2013-07-16 03:10:00,72.8,71.3,29.98,NE,47,0.0,0.0,95,0.00,,SKC,0.00,VWS V14.01,2013-07-16 08:10:00,
2013-07-16 03:11:00,72.8,71.3,29.98,NE,47,0.0,0.0,95,0.00,,SKC,0.00,VWS V14.01,2013-07-16 08:11:00,
2013-07-16 03:16:00,72.8,71.3,29.98,NE,47,0.0,2.0,95,0.00,,SKC,0.00,VWS V14.01,2013-07-16 08:16:00,
2013-07-16 03:20:00,72.8,71.3,29.98,NE,47,0.0,2.0,95,0.00,,SKC,0.00,VWS V14.01,2013-07-16 08:20:00,
2013-07-16 03:21:00,72.8,71.3,29.97,NE,47,0.0,0.0,95,0.00,,SKC,0.00,VWS V14.01,2013-07-16 08:21:00,
2013-07-16 03:26:00,72.8,71.3,29.97,NE,47,0.0,0.0,95,0.00,,SKC,0.00,VWS V14.01,2013-07-16 08:26:00,
2013-07-16 03:30:00,72.8,71.3,29.97,NE,47,0.0,0.0,95,0.00,,SKC,0.00,VWS V14.01,2013-07-16 08:30:00,
2013-07-16 03:31:00,72.8,71.3,29.97,NE,47,2.0,2.0,95,0.00,,SKC,0.00,VWS V14.01,2013-07-16 08:31:00,
2013-07-16 03:36:00,72.8,71.3,29.98,NE,47,0.0,2.0,95,0.00,,SKC,0.00,VWS V14.01,2013-07-16 08:36:00,
2013-07-16 03:40:00,72.8,71.3,29.98,NE,47,0.0,2.0,95,0.00,,SKC,0.00,VWS V14.01,2013-07-16 08:40:00,
2013-07-16 03:41:00,72.8,71.3,29.97,NE,47,0.0,1.0,95,0.00,,SKC,0.00,VWS V14.01,2013-07-16 08:41:00,
2013-07-16 03:46:00,72.8,71.3,29.97,NE,47,0.0,1.0,95,0.00,,SKC,0.00,VWS V14.01,2013-07-16 08:46:00,
2013-07-16 03:50:00,72.8,71.3,29.97,NE,47,0.0,1.0,95,0.00,,SKC,0.00,VWS V14.01,2013-07-16 08:50:00,
2013-07-16 03:51:00,72.8,71.3,29.97,NE,47,0.0,0.0,95,0.00,,SKC,0.00,VWS V14.01,2013-07-16 08:51:00,
2013-07-16 03:56:00,72.7,71.2,29.97,NE,47,0.0,0.0,95,0.00,,SKC,0.00,VWS V14.01,2013-07-16 08:56:00,
2013-07-16 04:00:00,72.7,71.2,29.97,NE,47,0.0,0.0,95,0.00,,SKC,0.00,VWS V14.01,2013-07-16 09:00:00,
2013-07-16 04:01:00,72.7,71.2,29.97,NE,47,0.0,0.0,95,0.00,,SKC,0.00,VWS V14.01,2013-07-16 09:01:00,
2013-07-16 04:05:00,72.7,71.2,29.97,NE,47,0.0,3.0,95,0.00,,SKC,0.00,VWS V14.01,2013-07-16 09:05:00,
2013-07-16 04:10:00,72.8,71.3,29.97,NE,47,0.0,1.0,95,0.00,,SKC,0.00,VWS V14.01,2013-07-16 09:10:00,
2013-07-16 04:16:00,72.8,71.3,29.97,NE,47,0.0,1.0,95,0.00,,SKC,0.00,VWS V14.01,2013-07-16 09:16:00,
2013-07-16 04:20:00,72.8,71.3,29.97,NE,47,0.0,1.0,95,0.00,,SKC,0.00,VWS V14.01,2013-07-16 09:20:00,
2013-07-16 04:21:00,72.8,71.3,29.97,NE,47,0.0,3.0,95,0.00,,SKC,0.00,VWS V14.01,2013-07-16 09:21:00,
2013-07-16 04:25:00,72.8,71.3,29.97,NE,47,0.0,4.0,95,0.00,,SKC,0.00,VWS V14.01,2013-07-16 09:25:00,
2013-07-16 04:30:00,72.8,71.3,29.97,NE,47,0.0,4.0,95,0.00,,SKC,0.00,VWS V14.01,2013-07-16 09:30:00,
2013-07-16 04:35:00,72.8,71.3,29.97,NE,47,0.0,4.0,95,0.00,,SKC,0.00,VWS V14.01,2013-07-16 09:35:00,
2013-07-16 04:40:00,72.8,71.3,29.97,NE,47,0.0,0.0,95,0.00,,SKC,0.00,VWS V14.01,2013-07-16 09:40:00,
2013-07-16 04:45:00,72.8,71.3,29.97,NE,47,0.0,2.0,95,0.00,,SKC,0.00,VWS V14.01,2013-07-16 09:45:00,
2013-07-16 04:50:00,72.8,71.3,29.97,NE,47,0.0,0.0,95,0.00,,SKC,0.00,VWS V14.01,2013-07-16 09:50:00,
2013-07-16 04:55:00,72.8,71.3,29.96,NE,47,0.0,0.0,95,0.00,,SKC,0.00,VWS V14.01,2013-07-16 09:55:00,
2013-07-16 05:00:00,72.8,71.3,29.97,NE,47,0.0,0.0,95,0.00,,SKC,0.00,VWS V14.01,2013-07-16 10:00:00,
2013-07-16 05:05:00,72.8,71.3,29.97,NE,47,0.0,0.0,95,0.00,,SKC,0.00,VWS V14.01,2013-07-16 10:05:00,
2013-07-16 05:10:00,72.8,71.3,29.97,NE,47,0.0,1.0,95,0.00,,SKC,0.00,VWS V14.01,2013-07-16 10:10:00,
2013-07-16 05:15:00,72.9,71.4,29.97,NE,47,0.0,1.0,95,0.00,,SKC,0.00,VWS V14.01,2013-07-16 10:15:00,
2013-07-16 05:20:00,72.9,71.4,29.97,NE,47,0.0,0.0,95,0.00,,SKC,0.00,VWS V14.01,2013-07-16 10:20:00,
2013-07-16 05:25:00,72.9,71.4,29.97,NE,47,0.0,0.0,95,0.00,,SKC,0.00,VWS V14.01,2013-07-16 10:25:00,
2013-07-16 05:30:00,72.9,71.4,29.97,NE,47,0.0,1.0,95,0.00,,SKC,0.00,VWS V14.01,2013-07-16 10:30:00,
2013-07-16 05:35:00,72.9,71.4,29.97,NE,47,0.0,5.0,95,0.00,,SKC,0.00,VWS V14.01,2013-07-16 10:35:00,
2013-07-16 05:40:00,72.9,71.4,29.97,NE,47,0.0,1.0,95,0.00,,SKC,0.00,VWS V14.01,2013-07-16 10:40:00,
2013-07-16 05:45:00,72.9,71.4,29.97,NE,47,0.0,4.0,95,0.00,,SKC,0.00,VWS V14.01,2013-07-16 10:45:00,
2013-07-16 05:50:00,72.9,71.4,29.97,NE,47,0.0,0.0,95,0.00,,SKC,0.00,VWS V14.01,2013-07-16 10:50:00,
2013-07-16 05:55:00,72.9,71.4,29.97,NE,47,1.0,2.0,95,0.00,,SKC,0.00,VWS V14.01,2013-07-16 10:55:00,
2013-07-16 06:00:00,72.9,71.4,29.98,NE,47,0.0,4.0,95,0.00,,SKC,0.00,VWS V14.01,2013-07-16 11:00:00,
2013-07-16 06:05:00,72.9,71.4,29.98,NE,47,0.0,4.0,95,0.00,,SKC,0.00,VWS V14.01,2013-07-16 11:05:00,
2013-07-16 06:10:00,72.9,71.4,29.98,NE,47,0.0,1.0,95,0.00,,SKC,0.00,VWS V14.01,2013-07-16 11:10:00,
2013-07-16 06:15:00,73.0,71.8,29.98,NE,47,0.0,6.0,96,0.00,,SKC,0.00,VWS V14.01,2013-07-16 11:15:00,
2013-07-16 06:20:00,73.1,71.9,29.98,NE,47,0.0,4.0,96,0.00,,SKC,0.00,VWS V14.01,2013-07-16 11:20:00,
2013-07-16 06:25:00,73.1,71.9,29.99,NE,47,0.0,5.0,96,0.00,,SKC,0.00,VWS V14.01,2013-07-16 11:25:00,
2013-07-16 06:30:00,73.1,71.9,29.99,NE,47,0.0,5.0,96,0.00,,SKC,0.00,VWS V14.01,2013-07-16 11:30:00,
2013-07-16 06:35:00,73.1,71.9,29.99,NE,47,0.0,5.0,96,0.00,,SKC,0.00,VWS V14.01,2013-07-16 11:35:00,
2013-07-16 06:40:00,73.1,71.9,29.99,NE,47,1.0,5.0,96,0.00,,SKC,0.00,VWS V14.01,2013-07-16 11:40:00,
2013-07-16 06:45:00,73.1,71.9,29.99,NE,47,0.0,5.0,96,0.00,,SKC,0.00,VWS V14.01,2013-07-16 11:45:00,
2013-07-16 06:50:00,73.1,71.9,30.00,NE,56,0.0,0.0,96,0.00,,SKC,0.00,VWS V14.01,2013-07-16 11:50:00,
2013-07-16 06:55:00,73.0,71.8,30.00,NE,55,0.0,4.0,96,0.00,,SKC,0.00,VWS V14.01,2013-07-16 11:55:00,
2013-07-16 07:00:00,73.0,71.8,30.00,NE,55,4.0,6.0,96,0.00,,SKC,0.00,VWS V14.01,2013-07-16 12:00:00,
2013-07-16 07:05:00,72.9,71.7,30.00,NE,55,0.0,6.0,96,0.00,,SKC,0.00,VWS V14.01,2013-07-16 12:05:00,
2013-07-16 07:10:00,72.9,71.7,30.00,NE,54,2.0,8.0,96,0.00,,SKC,0.00,VWS V14.01,2013-07-16 12:10:00,
2013-07-16 07:15:00,73.0,71.8,30.00,NE,54,6.0,8.0,96,0.00,,SKC,0.00,VWS V14.01,2013-07-16 12:15:00,
2013-07-16 07:20:00,73.1,71.9,30.00,NE,53,5.0,8.0,96,0.00,,SKC,0.00,VWS V14.01,2013-07-16 12:20:00,
2013-07-16 07:25:00,73.1,71.9,30.00,NE,53,0.0,8.0,96,0.00,,SKC,0.00,VWS V14.01,2013-07-16 12:25:00,
2013-07-16 07:30:00,73.3,72.1,30.00,NE,53,1.0,6.0,96,0.00,,SKC,0.00,VWS V14.01,2013-07-16 12:30:00,
2013-07-16 07:35:00,73.4,72.2,30.01,NE,53,2.0,6.0,96,0.00,,SKC,0.00,VWS V14.01,2013-07-16 12:35:00,
2013-07-16 07:40:00,73.4,72.2,30.01,NE,53,0.0,3.0,96,0.00,,SKC,0.00,VWS V14.01,2013-07-16 12:40:00,
2013-07-16 07:45:00,73.5,72.3,30.01,NE,53,0.0,3.0,96,0.00,,SKC,0.00,VWS V14.01,2013-07-16 12:45:00,
2013-07-16 07:50:00,73.6,72.4,30.01,NE,53,0.0,5.0,96,0.00,,SKC,0.00,VWS V14.01,2013-07-16 12:50:00,
2013-07-16 07:55:00,73.7,72.5,30.01,NE,53,0.0,5.0,96,0.00,,SKC,0.00,VWS V14.01,2013-07-16 12:55:00,
2013-07-16 08:00:00,73.7,72.5,30.01,NE,53,0.0,8.0,96,0.00,,SKC,0.00,VWS V14.01,2013-07-16 13:00:00,
2013-07-16 08:05:00,73.8,72.6,30.01,NE,53,0.0,8.0,96,0.00,,SKC,0.00,VWS V14.01,2013-07-16 13:05:00,
2013-07-16 08:10:00,73.9,72.7,30.02,NE,53,0.0,6.0,96,0.00,,SKC,0.00,VWS V14.01,2013-07-16 13:10:00,
2013-07-16 08:15:00,74.0,72.8,30.01,NE,52,0.0,8.0,96,0.00,,SKC,0.00,VWS V14.01,2013-07-16 13:15:00,
2013-07-16 08:20:00,74.1,72.9,30.02,NE,52,0.0,0.0,96,0.00,,SKC,0.00,VWS V14.01,2013-07-16 13:20:00,
2013-07-16 08:25:00,74.2,73.0,30.02,NE,52,0.0,1.0,96,0.00,,SKC,0.00,VWS V14.01,2013-07-16 13:25:00,
2013-07-16 08:30:00,74.3,73.1,30.02,NE,52,0.0,4.0,96,0.00,,SKC,0.00,VWS V14.01,2013-07-16 13:30:00,
2013-07-16 08:35:00,74.4,73.2,30.03,NE,53,1.0,6.0,96,0.00,,SKC,0.00,VWS V14.01,2013-07-16 13:35:00,
2013-07-16 08:40:00,74.5,73.3,30.02,NE,53,1.0,6.0,96,0.00,,SKC,0.00,VWS V14.01,2013-07-16 13:40:00,
2013-07-16 08:45:00,74.6,73.4,30.02,NE,53,0.0,6.0,96,0.00,,SKC,0.00,VWS V14.01,2013-07-16 13:45:00,
2013-07-16 08:50:00,74.7,73.5,30.02,NE,53,0.0,4.0,96,0.00,,SKC,0.00,VWS V14.01,2013-07-16 13:50:00,
2013-07-16 08:55:00,74.9,73.7,30.03,NE,53,0.0,7.0,96,0.00,,SKC,0.00,VWS V14.01,2013-07-16 13:55:00,
2013-07-16 09:00:00,75.2,74.0,30.03,NE,53,0.0,3.0,96,0.00,,SKC,0.00,VWS V14.01,2013-07-16 14:00:00,
2013-07-16 09:05:00,75.5,74.3,30.03,NE,53,0.0,9.0,96,0.00,,SKC,0.00,VWS V14.01,2013-07-16 14:05:00,
2013-07-16 09:10:00,75.7,74.5,30.02,NE,53,1.0,2.0,96,0.00,,SKC,0.00,VWS V14.01,2013-07-16 14:10:00,
2013-07-16 09:15:00,76.0,74.5,30.02,NE,54,0.0,6.0,95,0.00,,SKC,0.00,VWS V14.01,2013-07-16 14:15:00,
2013-07-16 09:20:00,76.4,74.9,30.03,NE,54,0.0,1.0,95,0.00,,SKC,0.00,VWS V14.01,2013-07-16 14:20:00,
2013-07-16 09:25:00,76.7,74.8,30.02,NE,54,0.0,5.0,94,0.00,,SKC,0.00,VWS V14.01,2013-07-16 14:25:00,
2013-07-16 09:30:00,76.9,74.7,30.03,NE,54,0.0,1.0,93,0.00,,SKC,0.00,VWS V14.01,2013-07-16 14:30:00,
2013-07-16 09:35:00,77.1,74.9,30.03,NE,55,0.0,5.0,93,0.00,,SKC,0.00,VWS V14.01,2013-07-16 14:35:00,
2013-07-16 09:40:00,77.4,74.9,30.03,NE,55,0.0,4.0,92,0.00,,SKC,0.00,VWS V14.01,2013-07-16 14:40:00,
2013-07-16 09:45:00,77.7,74.9,30.03,ENE,57,0.0,4.0,91,0.00,,SKC,0.00,VWS V14.01,2013-07-16 14:45:00,
2013-07-16 09:50:00,78.1,75.3,30.03,ENE,57,0.0,1.0,91,0.00,,SKC,0.00,VWS V14.01,2013-07-16 14:50:00,
2013-07-16 09:55:00,78.5,75.3,30.03,NE,55,0.0,7.0,90,0.00,,SKC,0.00,VWS V14.01,2013-07-16 14:55:00,
2013-07-16 10:00:00,78.9,75.1,30.03,ENE,60,0.0,8.0,88,0.00,,SKC,0.00,VWS V14.01,2013-07-16 15:00:00,
2013-07-16 10:05:00,79.4,75.2,30.03,ENE,61,0.0,8.0,87,0.00,,SKC,0.00,VWS V14.01,2013-07-16 15:05:00,
2013-07-16 10:10:00,79.9,75.3,30.03,ENE,63,1.0,7.0,86,0.00,,SKC,0.00,VWS V14.01,2013-07-16 15:10:00,
2013-07-16 10:15:00,80.5,75.2,30.03,ENE,69,0.0,8.0,84,0.00,,SKC,0.00,VWS V14.01,2013-07-16 15:15:00,
2013-07-16 10:20:00,80.7,75.1,30.03,ENE,69,0.0,7.0,83,0.00,,SKC,0.00,VWS V14.01,2013-07-16 15:20:00,
2013-07-16 10:25:00,80.3,73.6,30.03,East,82,1.0,7.0,80,0.00,,SKC,0.00,VWS V14.01,2013-07-16 15:25:00,
2013-07-16 10:30:00,79.5,73.2,30.04,East,82,0.0,0.0,81,0.00,,SKC,0.00,VWS V14.01,2013-07-16 15:30:00,
2013-07-16 10:35:00,78.8,72.8,30.04,East,86,0.0,6.0,82,0.00,,SKC,0.00,VWS V14.01,2013-07-16 15:35:00,
2013-07-16 10:40:00,78.3,72.7,30.03,East,86,0.0,0.0,83,0.00,,SKC,0.00,VWS V14.01,2013-07-16 15:40:00,
2013-07-16 10:45:00,78.1,72.9,30.03,East,86,0.0,0.0,84,0.00,,SKC,0.00,VWS V14.01,2013-07-16 15:45:00,
2013-07-16 10:50:00,78.3,73.4,30.03,East,86,0.0,0.0,85,0.00,,SKC,0.00,VWS V14.01,2013-07-16 15:50:00,
2013-07-16 10:55:00,78.7,73.8,30.03,East,86,0.0,0.0,85,0.00,,SKC,0.00,VWS V14.01,2013-07-16 15:55:00,
2013-07-16 11:00:00,79.2,73.9,30.03,East,86,0.0,1.0,84,0.00,,SKC,0.00,VWS V14.01,2013-07-16 16:00:00,
2013-07-16 11:05:00,79.8,73.8,30.03,East,86,0.0,6.0,82,0.00,,SKC,0.00,VWS V14.01,2013-07-16 16:05:00,
2013-07-16 11:10:00,80.3,74.3,30.03,East,86,0.0,0.0,82,0.00,,SKC,0.00,VWS V14.01,2013-07-16 16:10:00,
2013-07-16 11:15:00,80.3,74.7,30.04,SE,146,7.0,10.0,83,0.03,,SKC,0.03,VWS V14.01,2013-07-16 16:15:00,
2013-07-16 11:20:00,78.5,72.6,30.04,South,170,0.0,8.0,82,0.13,,SKC,0.13,VWS V14.01,2013-07-16 16:20:00,
2013-07-16 11:25:00,77.0,72.2,30.04,SSE,168,0.0,8.0,85,0.21,,SKC,0.21,VWS V14.01,2013-07-16 16:25:00,
2013-07-16 11:30:00,76.0,71.9,30.04,SSE,167,1.0,4.0,87,0.23,,SKC,0.23,VWS V14.01,2013-07-16 16:30:00,
2013-07-16 11:35:00,75.7,72.6,30.04,SSE,166,0.0,7.0,90,0.25,,SKC,0.25,VWS V14.01,2013-07-16 16:35:00,
2013-07-16 11:40:00,75.8,73.3,30.04,SSE,166,0.0,0.0,92,0.25,,SKC,0.25,VWS V14.01,2013-07-16 16:40:00,
2013-07-16 11:45:00,76.0,73.5,30.04,SSE,166,0.0,0.0,92,0.25,,SKC,0.25,VWS V14.01,2013-07-16 16:45:00,
2013-07-16 11:50:00,76.0,73.5,30.04,SSE,166,0.0,6.0,92,0.31,,SKC,0.31,VWS V14.01,2013-07-16 16:50:00,
2013-07-16 11:55:00,76.1,73.9,30.04,SSE,165,0.0,6.0,93,0.32,,SKC,0.32,VWS V14.01,2013-07-16 16:55:00,
2013-07-16 12:00:00,76.4,74.6,30.04,SSE,165,0.0,1.0,94,0.32,,SKC,0.32,VWS V14.01,2013-07-16 17:00:00,
2013-07-16 12:05:00,76.8,74.9,30.03,SSE,165,0.0,1.0,94,0.32,,SKC,0.32,VWS V14.01,2013-07-16 17:05:00,
2013-07-16 12:10:00,77.0,74.8,30.03,SSE,165,0.0,0.0,93,0.32,,SKC,0.32,VWS V14.01,2013-07-16 17:10:00,
2013-07-16 12:15:00,77.1,74.9,30.04,SSE,165,0.0,0.0,93,0.32,,SKC,0.32,VWS V14.01,2013-07-16 17:15:00,
2013-07-16 12:20:00,77.3,75.1,30.04,SSE,165,0.0,0.0,93,0.27,,SKC,0.32,VWS V14.01,2013-07-16 17:20:00,
2013-07-16 12:25:00,77.4,74.9,30.03,SSE,165,0.0,0.0,92,0.27,,SKC,0.32,VWS V14.01,2013-07-16 17:25:00,
2013-07-16 12:30:00,77.5,75.0,30.03,SSE,165,0.0,0.0,92,0.09,,SKC,0.32,VWS V14.01,2013-07-16 17:30:00,
2013-07-16 12:35:00,77.8,75.3,30.03,SSE,165,0.0,0.0,92,0.09,,SKC,0.32,VWS V14.01,2013-07-16 17:35:00,
2013-07-16 12:40:00,78.0,75.5,30.03,SSE,165,0.0,0.0,92,0.08,,SKC,0.33,VWS V14.01,2013-07-16 17:40:00,
2013-07-16 12:45:00,78.2,75.0,30.03,SSE,165,0.0,0.0,90,0.08,,SKC,0.33,VWS V14.01,2013-07-16 17:45:00,
2013-07-16 12:50:00,78.4,74.9,30.03,SSE,165,0.0,0.0,89,0.07,,SKC,0.33,VWS V14.01,2013-07-16 17:50:00,
2013-07-16 12:55:00,78.6,74.8,30.03,SSE,165,0.0,0.0,88,0.07,,SKC,0.33,VWS V14.01,2013-07-16 17:55:00,
2013-07-16 13:00:00,78.9,75.1,30.03,SSE,165,0.0,0.0,88,0.01,,SKC,0.33,VWS V14.01,2013-07-16 18:00:00,
2013-07-16 13:05:00,79.1,75.6,30.03,SSE,165,0.0,0.0,89,0.01,,SKC,0.33,VWS V14.01,2013-07-16 18:05:00,
2013-07-16 13:10:00,79.5,76.0,30.03,SSE,165,0.0,0.0,89,0.01,,SKC,0.33,VWS V14.01,2013-07-16 18:10:00,
2013-07-16 13:15:00,79.7,76.2,30.03,SSE,165,0.0,0.0,89,0.01,,SKC,0.33,VWS V14.01,2013-07-16 18:15:00,
2013-07-16 13:20:00,80.0,76.5,30.02,SSE,165,0.0,0.0,89,0.01,,SKC,0.33,VWS V14.01,2013-07-16 18:20:00,
2013-07-16 13:25:00,80.2,76.3,30.02,SSE,165,0.0,0.0,88,0.01,,SKC,0.33,VWS V14.01,2013-07-16 18:25:00,
2013-07-16 13:30:00,80.9,76.7,30.02,SSE,165,0.0,0.0,87,0.01,,SKC,0.33,VWS V14.01,2013-07-16 18:30:00,
2013-07-16 13:35:00,81.0,76.4,30.02,SSE,165,0.0,0.0,86,0.03,,SKC,0.35,VWS V14.01,2013-07-16 18:35:00,
2013-07-16 13:40:00,80.8,75.2,30.01,SSE,165,0.0,0.0,83,0.03,,SKC,0.35,VWS V14.01,2013-07-16 18:40:00,
2013-07-16 13:45:00,80.8,75.5,30.01,SSE,165,0.0,0.0,84,0.04,,SKC,0.36,VWS V14.01,2013-07-16 18:45:00,
2013-07-16 13:50:00,81.0,76.8,30.01,SSE,165,0.0,0.0,87,0.03,,SKC,0.36,VWS V14.01,2013-07-16 18:50:00,
2013-07-16 13:55:00,81.8,77.9,30.01,SSE,165,0.0,0.0,88,0.03,,SKC,0.36,VWS V14.01,2013-07-16 18:55:00,
2013-07-16 14:00:00,82.9,79.0,30.00,SSE,166,5.0,5.0,88,0.03,,SKC,0.36,VWS V14.01,2013-07-16 19:00:00,
2013-07-16 14:05:00,83.7,78.3,30.00,South,169,0.0,6.0,84,0.03,,SKC,0.36,VWS V14.01,2013-07-16 19:05:00,
2013-07-16 14:10:00,84.0,77.5,29.99,South,171,0.0,5.0,81,0.03,,SKC,0.36,VWS V14.01,2013-07-16 19:10:00,
2013-07-16 14:15:00,83.8,76.6,30.04,ESE,111,7.0,18.0,79,0.03,,SKC,0.36,VWS V14.01,2013-07-16 19:15:00,
2013-07-16 14:20:00,80.5,72.2,30.05,ESE,117,5.0,12.0,76,0.14,,SKC,0.47,VWS V14.01,2013-07-16 19:20:00,
2013-07-16 14:25:00,77.2,71.6,30.06,ESE,116,0.0,12.0,83,0.29,,SKC,0.62,VWS V14.01,2013-07-16 19:25:00,
2013-07-16 14:30:00,75.5,71.0,30.06,ESE,116,0.0,0.0,86,0.43,,SKC,0.76,VWS V14.01,2013-07-16 19:30:00,
2013-07-16 14:35:00,74.4,70.9,30.05,ESE,117,0.0,2.0,89,0.55,,SKC,0.88,VWS V14.01,2013-07-16 19:35:00,
2013-07-16 14:40:00,73.9,71.1,30.03,ESE,116,0.0,0.0,91,0.62,,SKC,0.97,VWS V14.01,2013-07-16 19:40:00,
2013-07-16 14:45:00,73.4,70.6,30.03,ESE,115,0.0,4.0,91,0.67,,SKC,1.02,VWS V14.01,2013-07-16 19:45:00,
2013-07-16 14:50:00,73.2,70.7,30.05,ESE,115,0.0,2.0,92,0.66,,SKC,1.02,VWS V14.01,2013-07-16 19:50:00,
2013-07-16 14:55:00,72.9,70.8,30.06,ESE,115,0.0,2.0,93,0.67,,SKC,1.03,VWS V14.01,2013-07-16 19:55:00,
2013-07-16 15:00:00,72.8,71.0,30.06,ESE,115,4.0,5.0,94,0.67,,SKC,1.03,VWS V14.01,2013-07-16 20:00:00,
2013-07-16 15:05:00,72.6,70.5,30.05,ESE,113,0.0,5.0,93,0.69,,SKC,1.05,VWS V14.01,2013-07-16 20:05:00,
2013-07-16 15:10:00,72.4,70.6,30.05,ESE,113,0.0,0.0,94,0.70,,SKC,1.06,VWS V14.01,2013-07-16 20:10:00,
2013-07-16 15:15:00,72.4,70.6,30.05,ESE,112,0.0,7.0,94,0.70,,SKC,1.06,VWS V14.01,2013-07-16 20:15:00,
2013-07-16 15:20:00,72.4,70.9,30.05,ESE,112,0.0,1.0,95,0.70,,SKC,1.07,VWS V14.01,2013-07-16 20:20:00,
2013-07-16 15:25:00,72.4,70.9,30.04,ESE,117,0.0,1.0,95,0.70,,SKC,1.07,VWS V14.01,2013-07-16 20:25:00,
2013-07-16 15:30:00,72.3,70.8,30.04,ESE,117,0.0,0.0,95,0.42,,SKC,1.07,VWS V14.01,2013-07-16 20:30:00,
2013-07-16 15:35:00,72.2,70.7,30.04,ESE,117,0.0,5.0,95,0.42,,SKC,1.07,VWS V14.01,2013-07-16 20:35:00,
2013-07-16 15:40:00,72.2,70.7,30.03,ESE,117,0.0,4.0,95,0.17,,SKC,1.07,VWS V14.01,2013-07-16 20:40:00,
2013-07-16 15:45:00,72.2,70.7,30.02,ESE,117,0.0,4.0,95,0.17,,SKC,1.07,VWS V14.01,2013-07-16 20:45:00,
2013-07-16 15:50:00,72.3,70.8,30.02,ESE,123,0.0,0.0,95,0.05,,SKC,1.07,VWS V14.01,2013-07-16 20:50:00,
2013-07-16 15:55:00,72.3,70.8,30.02,ESE,123,0.0,0.0,95,0.05,,SKC,1.07,VWS V14.01,2013-07-16 20:55:00,
2013-07-16 16:00:00,72.4,70.9,30.02,ESE,123,0.0,0.0,95,0.04,,SKC,1.07,VWS V14.01,2013-07-16 21:00:00,
2013-07-16 16:05:00,72.5,71.0,30.02,ESE,123,0.0,0.0,95,0.04,,SKC,1.07,VWS V14.01,2013-07-16 21:05:00,
2013-07-16 16:10:00,72.5,71.3,30.02,ESE,119,0.0,0.0,96,0.02,,SKC,1.07,VWS V14.01,2013-07-16 21:10:00,
2013-07-16 16:15:00,72.6,71.4,30.02,ESE,119,0.0,0.0,96,0.02,,SKC,1.07,VWS V14.01,2013-07-16 21:15:00,
2013-07-16 16:20:00,72.6,71.1,30.02,ESE,118,0.0,5.0,95,0.01,,SKC,1.07,VWS V14.01,2013-07-16 21:20:00,
2013-07-16 16:25:00,72.5,71.0,30.02,ESE,118,0.0,5.0,95,0.01,,SKC,1.07,VWS V14.01,2013-07-16 21:25:00,
2013-07-16 16:30:00,72.5,71.0,30.02,ESE,118,0.0,3.0,95,0.00,,SKC,1.07,VWS V14.01,2013-07-16 21:30:00,
2013-07-16 16:35:00,72.6,71.4,30.02,ESE,118,0.0,4.0,96,0.00,,SKC,1.07,VWS V14.01,2013-07-16 21:35:00,
2013-07-16 16:40:00,72.5,71.0,30.02,ESE,117,0.0,7.0,95,0.01,,SKC,1.08,VWS V14.01,2013-07-16 21:40:00,
2013-07-16 16:45:00,72.5,71.0,30.02,ESE,117,0.0,7.0,95,0.01,,SKC,1.08,VWS V14.01,2013-07-16 21:45:00,
2013-07-16 16:50:00,72.5,71.0,30.02,ESE,116,0.0,7.0,95,0.01,,SKC,1.08,VWS V14.01,2013-07-16 21:50:00,
2013-07-16 16:55:00,72.6,71.4,30.01,ESE,116,0.0,7.0,96,0.01,,SKC,1.08,VWS V14.01,2013-07-16 21:55:00,
2013-07-16 17:00:00,72.8,71.6,30.01,ESE,116,0.0,1.0,96,0.01,,SKC,1.08,VWS V14.01,2013-07-16 22:00:00,
2013-07-16 17:05:00,73.1,71.9,30.01,ESE,116,0.0,1.0,96,0.01,,SKC,1.08,VWS V14.01,2013-07-16 22:05:00,
2013-07-16 17:10:00,73.3,72.1,30.01,ESE,116,0.0,3.0,96,0.01,,SKC,1.08,VWS V14.01,2013-07-16 22:10:00,
2013-07-16 17:15:00,73.5,72.3,30.01,ESE,116,0.0,3.0,96,0.01,,SKC,1.08,VWS V14.01,2013-07-16 22:15:00,
2013-07-16 17:20:00,73.8,72.6,30.00,ESE,116,0.0,4.0,96,0.01,,SKC,1.08,VWS V14.01,2013-07-16 22:20:00,
2013-07-16 17:25:00,74.0,72.8,30.00,ESE,116,0.0,4.0,96,0.02,,SKC,1.09,VWS V14.01,2013-07-16 22:25:00,
2013-07-16 17:30:00,74.2,73.0,30.00,ESE,116,0.0,3.0,96,0.02,,SKC,1.09,VWS V14.01,2013-07-16 22:30:00,
2013-07-16 17:35:00,74.4,73.2,30.00,ESE,116,0.0,8.0,96,0.02,,SKC,1.09,VWS V14.01,2013-07-16 22:35:00,
2013-07-16 17:40:00,74.6,73.1,30.00,ESE,116,0.0,1.0,95,0.01,,SKC,1.09,VWS V14.01,2013-07-16 22:40:00,
2013-07-16 17:45:00,74.8,73.3,30.00,ESE,116,0.0,3.0,95,0.01,,SKC,1.09,VWS V14.01,2013-07-16 22:45:00,
2013-07-16 17:50:00,74.9,73.4,30.00,ESE,116,0.0,1.0,95,0.01,,SKC,1.09,VWS V14.01,2013-07-16 22:50:00,
2013-07-16 17:55:00,75.1,73.3,29.99,ESE,116,0.0,4.0,94,0.01,,SKC,1.09,VWS V14.01,2013-07-16 22:55:00,
2013-07-16 18:00:00,75.4,73.6,30.00,ESE,116,0.0,0.0,94,0.01,,SKC,1.09,VWS V14.01,2013-07-16 23:00:00,
2013-07-16 18:05:00,75.7,73.8,30.00,ESE,116,0.0,1.0,94,0.01,,SKC,1.09,VWS V14.01,2013-07-16 23:05:00,
2013-07-16 18:10:00,76.0,73.8,30.00,ESE,116,0.0,1.0,93,0.01,,SKC,1.09,VWS V14.01,2013-07-16 23:10:00,
2013-07-16 18:15:00,76.2,73.7,29.99,ESE,116,0.0,3.0,92,0.01,,SKC,1.09,VWS V14.01,2013-07-16 23:15:00,
2013-07-16 18:20:00,76.5,73.7,29.99,ESE,116,0.0,1.0,91,0.01,,SKC,1.09,VWS V14.01,2013-07-16 23:20:00,
2013-07-16 18:25:00,76.9,74.1,30.00,ESE,116,0.0,1.0,91,0.01,,SKC,1.09,VWS V14.01,2013-07-16 23:25:00,
2013-07-16 18:30:00,77.1,73.9,29.99,ESE,116,0.0,1.0,90,0.00,,SKC,1.09,VWS V14.01,2013-07-16 23:30:00,
2013-07-16 18:35:00,77.4,73.9,29.99,ESE,116,0.0,1.0,89,0.00,,SKC,1.09,VWS V14.01,2013-07-16 23:35:00,
2013-07-16 18:40:00,77.6,74.1,30.00,ESE,116,0.0,0.0,89,0.00,,SKC,1.09,VWS V14.01,2013-07-16 23:40:00,
2013-07-16 18:45:00,77.8,74.0,30.00,ESE,116,0.0,1.0,88,0.00,,SKC,1.09,VWS V14.01,2013-07-16 23:45:00,
2013-07-16 18:50:00,78.0,74.2,30.00,ESE,116,0.0,0.0,88,0.00,,SKC,1.09,VWS V14.01,2013-07-16 23:50:00,
2013-07-16 18:55:00,78.2,74.0,30.00,ESE,116,0.0,2.0,87,0.00,,SKC,1.09,VWS V14.01,2013-07-16 23:55:00,
2013-07-16 19:00:00,78.4,74.2,30.00,ESE,116,0.0,4.0,87,0.00,,SKC,1.09,VWS V14.01,2013-07-17 00:00:00,
2013-07-16 19:05:00,78.5,73.6,30.00,ESE,116,0.0,4.0,85,0.00,,SKC,1.09,VWS V14.01,2013-07-17 00:05:00,
2013-07-16 19:10:00,78.6,73.7,30.01,ESE,112,0.0,5.0,85,0.00,,SKC,1.09,VWS V14.01,2013-07-17 00:10:00,
2013-07-16 19:15:00,78.7,73.5,30.01,ESE,112,0.0,7.0,84,0.00,,SKC,1.09,VWS V14.01,2013-07-17 00:15:00,
2013-07-16 19:20:00,78.8,73.6,30.01,ESE,112,0.0,9.0,84,0.00,,SKC,1.09,VWS V14.01,2013-07-17 00:20:00,
2013-07-16 19:25:00,78.8,73.2,30.02,ESE,110,3.0,9.0,83,0.00,,SKC,1.09,VWS V14.01,2013-07-17 00:25:00,
2013-07-16 19:30:00,78.9,72.9,30.02,ESE,109,0.0,4.0,82,0.00,,SKC,1.09,VWS V14.01,2013-07-17 00:30:00,
2013-07-16 19:35:00,78.9,72.9,30.02,ESE,109,0.0,4.0,82,0.00,,SKC,1.09,VWS V14.01,2013-07-17 00:35:00,
2013-07-16 19:40:00,78.9,72.6,30.02,ESE,109,0.0,5.0,81,0.00,,SKC,1.09,VWS V14.01,2013-07-17 00:40:00,
2013-07-16 19:45:00,78.9,72.6,30.02,ESE,109,0.0,5.0,81,0.00,,SKC,1.09,VWS V14.01,2013-07-17 00:45:00,
2013-07-16 19:50:00,78.8,72.5,30.02,ESE,109,0.0,1.0,81,0.00,,SKC,1.09,VWS V14.01,2013-07-17 00:50:00,
2013-07-16 19:55:00,78.7,72.8,30.02,ESE,109,0.0,5.0,82,0.00,,SKC,1.09,VWS V14.01,2013-07-17 00:55:00,
2013-07-16 20:00:00,78.6,72.7,30.03,ESE,109,0.0,0.0,82,0.00,,SKC,1.09,VWS V14.01,2013-07-17 01:00:00,
2013-07-16 20:05:00,78.4,72.4,30.03,ESE,109,0.0,3.0,82,0.00,,SKC,1.09,VWS V14.01,2013-07-17 01:05:00,
2013-07-16 20:10:00,78.3,72.7,30.03,ESE,109,0.0,0.0,83,0.00,,SKC,1.09,VWS V14.01,2013-07-17 01:10:00,
2013-07-16 20:15:00,78.2,72.6,30.04,ESE,109,0.0,0.0,83,0.00,,SKC,1.09,VWS V14.01,2013-07-17 01:15:00,
2013-07-16 20:20:00,78.0,72.4,30.04,ESE,109,0.0,0.0,83,0.00,,SKC,1.09,VWS V14.01,2013-07-17 01:20:00,
2013-07-16 20:25:00,77.8,72.6,30.03,ESE,109,0.0,0.0,84,0.00,,SKC,1.09,VWS V14.01,2013-07-17 01:25:00,
2013-07-16 20:30:00,77.7,72.5,30.03,ESE,109,0.0,0.0,84,0.00,,SKC,1.09,VWS V14.01,2013-07-17 01:30:00,
2013-07-16 20:35:00,77.5,72.6,30.04,ESE,109,0.0,0.0,85,0.00,,SKC,1.09,VWS V14.01,2013-07-17 01:35:00,
2013-07-16 20:40:00,77.3,72.4,30.04,ESE,109,0.0,0.0,85,0.00,,SKC,1.09,VWS V14.01,2013-07-17 01:40:00,
2013-07-16 20:45:00,77.1,72.6,30.04,ESE,109,0.0,0.0,86,0.00,,SKC,1.09,VWS V14.01,2013-07-17 01:45:00,
2013-07-16 20:50:00,76.9,72.4,30.04,ESE,109,0.0,0.0,86,0.00,,SKC,1.09,VWS V14.01,2013-07-17 01:50:00,
2013-07-16 20:55:00,76.7,72.5,30.04,ESE,109,0.0,0.0,87,0.00,,SKC,1.09,VWS V14.01,2013-07-17 01:55:00,
2013-07-16 21:00:00,76.6,72.4,30.03,ESE,109,0.0,0.0,87,0.00,,SKC,1.09,VWS V14.01,2013-07-17 02:00:00,
2013-07-16 21:05:00,76.4,72.2,30.04,ESE,109,0.0,0.0,87,0.00,,SKC,1.09,VWS V14.01,2013-07-17 02:05:00,
2013-07-16 21:10:00,76.2,72.4,30.04,ESE,109,0.0,0.0,88,0.00,,SKC,1.09,VWS V14.01,2013-07-17 02:10:00,
2013-07-16 21:15:00,76.0,72.2,30.04,ESE,109,0.0,0.0,88,0.00,,SKC,1.09,VWS V14.01,2013-07-17 02:15:00,
2013-07-16 21:20:00,75.9,72.1,30.04,ESE,109,0.0,0.0,88,0.00,,SKC,1.09,VWS V14.01,2013-07-17 02:20:00,
2013-07-16 21:25:00,75.7,72.2,30.04,ESE,109,0.0,0.0,89,0.00,,SKC,1.09,VWS V14.01,2013-07-17 02:25:00,
2013-07-16 21:30:00,75.6,72.1,30.05,ESE,109,0.0,0.0,89,0.00,,SKC,1.09,VWS V14.01,2013-07-17 02:30:00,
2013-07-16 21:35:00,75.5,72.0,30.05,ESE,109,0.0,0.0,89,0.00,,SKC,1.09,VWS V14.01,2013-07-17 02:35:00,
2013-07-16 21:40:00,75.3,72.2,30.05,ESE,109,0.0,0.0,90,0.00,,SKC,1.09,VWS V14.01,2013-07-17 02:40:00,
2013-07-16 21:45:00,75.3,72.2,30.05,ESE,109,0.0,0.0,90,0.00,,SKC,1.09,VWS V14.01,2013-07-17 02:45:00,
2013-07-16 21:50:00,75.2,72.1,30.05,ESE,109,0.0,0.0,90,0.00,,SKC,1.09,VWS V14.01,2013-07-17 02:50:00,
2013-07-16 21:55:00,75.1,72.3,30.05,ESE,109,0.0,0.0,91,0.00,,SKC,1.09,VWS V14.01,2013-07-17 02:55:00,
2013-07-16 22:00:00,75.0,72.2,30.05,ESE,109,0.0,0.0,91,0.00,,SKC,1.09,VWS V14.01,2013-07-17 03:00:00,
2013-07-16 22:05:00,74.9,72.1,30.06,ESE,109,0.0,0.0,91,0.00,,SKC,1.09,VWS V14.01,2013-07-17 03:05:00,
2013-07-16 22:10:00,74.9,72.4,30.06,ESE,109,0.0,0.0,92,0.00,,SKC,1.09,VWS V14.01,2013-07-17 03:10:00,
2013-07-16 22:15:00,74.9,72.4,30.06,ESE,109,0.0,0.0,92,0.00,,SKC,1.09,VWS V14.01,2013-07-17 03:15:00,
2013-07-16 22:20:00,74.8,72.0,30.06,ESE,109,0.0,0.0,91,0.00,,SKC,1.09,VWS V14.01,2013-07-17 03:20:00,
2013-07-16 22:25:00,74.7,72.2,30.06,ESE,109,0.0,0.0,92,0.00,,SKC,1.09,VWS V14.01,2013-07-17 03:25:00,
2013-07-16 22:30:00,74.7,72.2,30.07,ESE,109,0.0,0.0,92,0.00,,SKC,1.09,VWS V14.01,2013-07-17 03:30:00,
2013-07-16 22:35:00,74.6,72.1,30.07,ESE,109,0.0,0.0,92,0.00,,SKC,1.09,VWS V14.01,2013-07-17 03:35:00,
2013-07-16 22:40:00,74.7,72.6,30.07,ESE,109,0.0,1.0,93,0.00,,SKC,1.09,VWS V14.01,2013-07-17 03:40:00,
2013-07-16 22:45:00,74.8,72.6,30.07,ESE,109,0.0,1.0,93,0.00,,SKC,1.09,VWS V14.01,2013-07-17 03:45:00,
2013-07-16 22:50:00,74.8,72.6,30.07,ESE,109,0.0,0.0,93,0.00,,SKC,1.09,VWS V14.01,2013-07-17 03:50:00,
2013-07-16 22:55:00,74.8,72.6,30.07,ESE,109,0.0,0.0,93,0.00,,SKC,1.09,VWS V14.01,2013-07-17 03:55:00,
2013-07-16 23:00:00,74.7,72.6,30.07,ESE,109,0.0,0.0,93,0.00,,SKC,1.09,VWS V14.01,2013-07-17 04:00:00,
2013-07-16 23:01:00,74.7,72.2,30.07,ESE,109,0.0,0.0,92,0.00,,SKC,1.09,VWS V14.01,2013-07-17 04:01:00,
2013-07-16 23:06:00,74.7,72.6,30.07,ESE,109,0.0,0.0,93,0.00,,SKC,1.09,VWS V14.01,2013-07-17 04:06:00,
2013-07-16 23:10:00,74.7,72.5,30.07,ESE,109,0.0,0.0,93,0.00,,SKC,1.09,VWS V14.01,2013-07-17 04:10:00,
2013-07-16 23:11:00,74.7,72.6,30.07,ESE,109,0.0,0.0,93,0.00,,SKC,1.09,VWS V14.01,2013-07-17 04:11:00,
2013-07-16 23:16:00,74.6,72.4,30.07,ESE,109,0.0,0.0,93,0.00,,SKC,1.09,VWS V14.01,2013-07-17 04:16:00,
2013-07-16 23:20:00,74.6,72.4,30.07,ESE,109,0.0,0.0,93,0.00,,SKC,1.09,VWS V14.01,2013-07-17 04:20:00,
2013-07-16 23:21:00,74.5,72.3,30.08,ESE,109,0.0,0.0,93,0.00,,SKC,1.09,VWS V14.01,2013-07-17 04:21:00,
2013-07-16 23:26:00,74.4,72.2,30.08,ESE,109,0.0,0.0,93,0.00,,SKC,1.09,VWS V14.01,2013-07-17 04:26:00,
2013-07-16 23:30:00,74.4,72.2,30.08,ESE,109,0.0,0.0,93,0.00,,SKC,1.09,VWS V14.01,2013-07-17 04:30:00,
2013-07-16 23:31:00,74.3,72.2,30.08,ESE,109,0.0,0.0,93,0.00,,SKC,1.09,VWS V14.01,2013-07-17 04:31:00,
2013-07-16 23:36:00,74.2,72.1,30.08,ESE,109,0.0,0.0,93,0.00,,SKC,1.09,VWS V14.01,2013-07-17 04:36:00,
2013-07-16 23:40:00,74.3,72.2,30.08,ESE,109,0.0,0.0,93,0.00,,SKC,1.09,VWS V14.01,2013-07-17 04:40:00,
2013-07-16 23:41:00,74.2,72.1,30.08,ESE,109,0.0,0.0,93,0.00,,SKC,1.09,VWS V14.01,2013-07-17 04:41:00,
2013-07-16 23:46:00,74.2,72.1,30.08,ESE,109,0.0,0.0,93,0.00,,SKC,1.09,VWS V14.01,2013-07-17 04:46:00,
2013-07-16 23:50:00,74.2,72.1,30.08,ESE,109,0.0,0.0,93,0.00,,SKC,1.09,VWS V14.01,2013-07-17 04:50:00,
2013-07-16 23:51:00,74.2,72.4,30.08,ESE,109,0.0,0.0,94,0.00,,SKC,1.09,VWS V14.01,2013-07-17 04:51:00,
2013-07-16 23:55:00,74.3,72.5,30.07,ESE,109,0.0,0.0,94,0.00,,SKC,1.09,VWS V14.01,2013-07-17 04:55:00,
2013-07-16 23:59:00,74.3,72.5,30.08,ESE,109,0.0,0.0,94,0.00,,SKC,0.00,VWS V14.01,2013-07-17 04:59:00,